Terminal Aerodrome Forecast
Issued by NWS

Home | Current Version | Previous Version | Text Only | Print | Product List | Glossary On
Versions: 1 2 3 4 5 6 7 8 9 10 11
000
FTUS45 KRIW 101125
TAFCPR
TAF
KCPR 101125Z 1012/1112 22017G25KT P6SM SCT250
     FM101500 23022G30KT P6SM SCT250
     FM110300 23015KT P6SM SCT250=

USA.gov is the U.S. government's official web portal to all federal, state and local government web resources and services.